| time (UTC) | temp F | wind direction | speed MPH | gust MPH | rain 1hr in | rain 24hr in | rain mn in | humidity % | barometer mb |
| 20260504081501 | 63 | 121 | 2.0 | 8.0 | 0.00 | 0.00 | 0.00 | 50 | 1015.4 |
| 20260504044554 | 55 | 101 | 0.0 | 5.0 | 0.00 | 0.00 | 0.00 | 58 | 1015.6 |
| 20260504043036 | 55 | 126 | 0.0 | 5.0 | 0.00 | 0.00 | 0.00 | 57 | 1015.8 |
| 20260504041534 | 54 | 105 | 0.0 | 5.0 | 0.00 | 0.00 | 0.00 | 57 | 1015.8 |
| 20260504040034 | 54 | 99 | 0.0 | 3.0 | 0.00 | 0.00 | 0.00 | 57 | 1015.8 |
| 20260504034539 | 54 | 89 | 0.0 | 3.0 | 0.00 | 0.00 | 0.00 | 56 | 1015.9 |
| 20260504033043 | 54 | 125 | 0.0 | 1.0 | 0.00 | 0.00 | 0.00 | 55 | 1015.9 |
| 20260504031533 | 54 | 82 | 0.0 | 4.0 | 0.00 | 0.00 | 0.00 | 54 | 1016.0 |
| 20260504030029 | 54 | 331 | 0.0 | 5.0 | 0.00 | 0.00 | 0.00 | 54 | 1015.9 |
| 20260504024528 | 54 | 111 | 0.0 | 4.0 | 0.00 | 0.00 | 0.00 | 53 | 1015.9 |
| 20260504023027 | 54 | 101 | 0.0 | 4.0 | 0.00 | 0.00 | 0.00 | 54 | 1015.9 |
| 20260504021532 | 54 | 92 | 0.0 | 3.0 | 0.00 | 0.00 | 0.00 | 52 | 1016.1 |
| 20260504020024 | 54 | 128 | 1.0 | 2.0 | 0.00 | 0.00 | 0.00 | 52 | 1016.0 |
| 20260504014523 | 54 | 124 | 0.0 | 2.0 | 0.00 | 0.00 | 0.00 | 51 | 1016.0 |
| 20260504013032 | 54 | 128 | 0.0 | 2.0 | 0.00 | 0.00 | 0.00 | 51 | 1016.0 |
| 20260504011520 | 54 | 304 | 0.0 | 3.0 | 0.00 | 0.00 | 0.00 | 51 | 1016.1 |
| 20260504010020 | 54 | 91 | 0.0 | 4.0 | 0.00 | 0.00 | 0.00 | 51 | 1016.0 |
| 20260504004519 | 55 | 100 | 0.0 | 10.0 | 0.00 | 0.00 | 0.00 | 50 | 1016.2 |
| 20260504003017 | 55 | 88 | 0.0 | 2.0 | 0.00 | 0.00 | 0.00 | 50 | 1016.1 |
| 20260504001518 | 54 | 146 | 0.0 | 6.0 | 0.00 | 0.00 | 0.00 | 49 | 1016.2 |
| 20260504000014 | 55 | 54 | 0.0 | 5.0 | 0.00 | 0.00 | 0.00 | 50 | 1016.3 |
| 20260503234514 | 55 | 106 | 0.0 | 2.0 | 0.00 | 0.00 | 0.00 | 50 | 1016.3 |
| 20260503233013 | 55 | 142 | 0.0 | 3.0 | 0.00 | 0.00 | 0.00 | 49 | 1016.3 |
| 20260503231511 | 55 | 335 | 0.0 | 3.0 | 0.00 | 0.00 | 0.00 | 48 | 1016.4 |
| 20260503230011 | 55 | 130 | 0.0 | 1.0 | 0.00 | 0.00 | 0.00 | 50 | 1016.5 |
| 20260503224508 | 55 | 108 | 0.0 | 3.0 | 0.00 | 0.00 | 0.00 | 48 | 1016.4 |
| 20260503223006 | 56 | 129 | 0.0 | 4.0 | 0.00 | 0.00 | 0.00 | 47 | 1016.5 |
| 20260503221503 | 56 | 159 | 0.0 | 1.0 | 0.00 | 0.00 | 0.00 | 46 | 1016.5 |
| 20260503220000 | 57 | 89 | 0.0 | 4.0 | 0.00 | 0.00 | 0.00 | 46 | 1016.6 |
| 20260503214500 | 57 | 146 | 0.0 | 5.0 | 0.00 | 0.00 | 0.00 | 46 | 1016.6 |
| 20260503213100 | 57 | 167 | 0.0 | 6.0 | 0.00 | 0.00 | 0.00 | 46 | 1016.6 |
| 20260503211609 | 57 | 159 | 1.0 | 7.0 | 0.00 | 0.00 | 0.00 | 48 | 1016.7 |
| 20260503210058 | 57 | 65 | 0.0 | 4.0 | 0.00 | 0.00 | 0.00 | 49 | 1016.7 |
| 20260503204602 | 57 | 166 | 0.0 | 3.0 | 0.00 | 0.00 | 0.00 | 50 | 1016.6 |
| 20260503203057 | 58 | 109 | 0.0 | 3.0 | 0.00 | 0.00 | 0.00 | 51 | 1016.6 |
| 20260503201557 | 59 | 170 | 1.0 | 9.0 | 0.00 | 0.00 | 0.00 | 50 | 1016.5 |
| 20260503200056 | 59 | 148 | 0.0 | 13.0 | 0.00 | 0.00 | 0.00 | 50 | 1016.8 |
| 20260503194556 | 59 | 335 | 2.0 | 5.0 | 0.00 | 0.00 | 0.00 | 50 | 1016.7 |
| 20260503193102 | 59 | 105 | 1.0 | 4.0 | 0.00 | 0.00 | 0.00 | 50 | 1016.7 |
| 20260503191555 | 59 | 352 | 1.0 | 4.0 | 0.00 | 0.00 | 0.00 | 50 | 1016.8 |
| 20260503190053 | 59 | 118 | 0.0 | 4.0 | 0.00 | 0.00 | 0.00 | 50 | 1016.8 |
| 20260503184552 | 60 | 87 | 1.0 | 7.0 | 0.00 | 0.00 | 0.00 | 49 | 1016.6 |
| 20260503183051 | 61 | 277 | 1.0 | 8.0 | 0.00 | 0.00 | 0.00 | 47 | 1016.5 |
| 20260503181618 | 61 | 316 | 1.0 | 10.0 | 0.00 | 0.00 | 0.00 | 48 | 1016.3 |
| 20260503180109 | 61 | 105 | 1.0 | 6.0 | 0.00 | 0.00 | 0.00 | 46 | 1016.1 |
| 20260503174555 | 62 | 174 | 0.0 | 13.0 | 0.00 | 0.00 | 0.00 | 46 | 1016.0 |
| 20260503173056 | 63 | 21 | 3.0 | 8.0 | 0.00 | 0.00 | 0.00 | 45 | 1015.9 |
| 20260503171549 | 63 | 108 | 2.0 | 7.0 | 0.00 | 0.00 | 0.00 | 45 | 1015.8 |